Regional Weather Roundup
Issued by NWS

Home | Current Version | Previous Version | Graphics & Text | Print | Product List | Glossary On
Versions: 1 2 3 4 5 6 7 8 9 10 11 12 13 14 15 16 17 18 19 20 21 22 23 24 25 26 27 28 29 30 31 32 33 34 35 36 37 38 39 40 41 42 43 44 45 46 47 48 49 50
000
ASUS43 KLMK 230602
RWRKY
KENTUCKY REGIONAL WEATHER ROUNDUP
NATIONAL WEATHER SERVICE LOUISVILLE KY
200 AM EDT THU OCT 23 2014

NOTE "FAIR" INDICATES FEW OR NO CLOUDS BELOW 12,000 FEET
WITH NO SIGNIFICANT WEATHER AND/OR OBSTRUCTIONS TO VISIBILITY.

KYZ001>023-026-027-061>063-070>075-230700-
WESTERN AND SOUTH CENTRAL KENTUCKY

CITY           SKY/WX    TMP DP  RH WIND       PRES   REMARKS
PADUCAH        FOG       41  38  89 CALM      30.22S VSB 1
HENDERSON      CLEAR    N/A N/A N/A CALM      30.24S
OWENSBORO      CLEAR     43  40  89 CALM      30.25S FOG
HOPKINSVILLE   CLEAR     46  43  87 E6        30.22S
BOWLING GREEN  CLEAR     40  37  89 NE3       30.24S
GLASGOW        NOT AVBL
$$

KYZ024-025-028>034-038-045-046-053-230700-
NORTH CENTRAL KENTUCKY

CITY           SKY/WX    TMP DP  RH WIND       PRES   REMARKS
LOUISVILLE/SDF CLEAR     47  39  74 SE6       30.26R
LOUISVILLE/LOU CLEAR     45  39  79 CALM      30.26S
FORT KNOX      CLEAR     39  37  94 N3        30.24S
$$

KYZ035>037-039>044-047>052-055>060-089>105-230700-
NORTHEAST KENTUCKY

CITY           SKY/WX    TMP DP  RH WIND       PRES   REMARKS
LEXINGTON      CLOUDY    51  41  68 NE7       30.25R
COVINGTON      CLOUDY    48  38  68 CALM      30.25F
FRANKFORT      CLOUDY    46  41  82 NE3       30.24S
$$

KYZ054-064>069-076>088-106>120-230700-
SOUTHEAST KENTUCKY

CITY           SKY/WX    TMP DP  RH WIND       PRES   REMARKS
JACKSON        CLOUDY    47  40  76 CALM      30.22S
LONDON         CLOUDY    49  42  77 N5        30.23R
SOMERSET       CLOUDY    45  41  87 CALM      30.24S
MIDDLESBORO    CLOUDY    48  44  86 CALM      30.22S
MONTICELLO     CLEAR     38  37  96 CALM      30.24S
$$




USA.gov is the U.S. government's official web portal to all federal, state and local government web resources and services.